Content
SEND FEEDBACK

Daily
Averages
Monthly
Summary
United States of America

BERKELEY, MISSOURI


Home > North America > United States > Missouri
Elevation: 564 feet     Latitude: 38 45N     Longitude: 090 22W

WEATHER
 
SELECT A DAY
Number of Records: 203,416;   Date Range: 1/1/95 - 7/26/14
 
SHARE

PRINT THIS DATA

[ ← Previous Day ]
WEATHER ALMANAC - JUNE 24, 2013
[ Next Day → ]
[ °C ]   °F
Weather ElementAverageHighLow
Temperature82.4 °F93 °F (2:51 pm)70 °F (1:51 am)
Dewpoint68.4 °F72 °F (11:51 am)64.9 °F (2:51 am)
Humidity64.7 %87 % (1:51 am)44 % (3:51 pm)
Barometer30.01 in30.12 in (5:51 am)29.91 in (10:51 pm)
Wind Speed7.4 mph13.8 mph (10:51 pm)
Wind Gust19.6 mph (1:51 pm)
Weather ElementAverage
Visibility10 mi
Wind DirectionSSE (161.7 °)

Weather ElementTotal
Precipitation---
Cooling Degree Days16.5 (Base 65)
Growing Degree Days31.5 (Base 50)
Averaged from 23 records on June 24, 2013
WEATHER CONDITIONS BREAKOUT
WIND DIRECTION BREAKOUT
WEATHER BY HOUR - JUNE 24, 2013
[ °C ]   °F
Local TimeTemperatureDewpointHumidityBarometerVisibilityWind DirectionWind SpeedGust SpeedPrecipitationEventsConditions
1:51 AM70.0 °F66.0 °F87 %30.11 in10.0 miSouth (170°)4.6 mphMostly Cloudy
2:51 AM70.0 °F64.9 °F84 %30.11 in10.0 miSE (140°)8.1 mphScattered Clouds
3:51 AM70.0 °F66.0 °F87 %30.10 in10.0 miSSE (160°)4.6 mphPartly Cloudy
4:51 AM70.0 °F66.0 °F87 %30.10 in10.0 miCalmMostly Cloudy
5:51 AM70.0 °F66.0 °F87 %30.12 in10.0 miCalmMostly Cloudy
6:51 AM71.1 °F66.9 °F87 %30.04 in10.0 miSouth (180°)3.5 mphMostly Cloudy
7:51 AM73.9 °F68.0 °F82 %30.05 in9.0 miSE (130°)4.6 mphMostly Cloudy
8:51 AM77.0 °F69.1 °F76 %30.06 in10.0 miSE (140°)4.6 mphScattered Clouds
9:51 AM82.9 °F71.1 °F67 %30.05 in10.0 miSW (220°)8.1 mphPartly Cloudy
10:51 AM84.9 °F71.1 °F63 %30.04 in10.0 miSSW (200°)6.9 mphPartly Cloudy
11:51 AM88.0 °F72.0 °F59 %30.03 in10.0 miVariable3.5 mphPartly Cloudy
12:51 PM90.0 °F71.1 °F54 %30.01 in10.0 miSSW (210°)9.2 mph16.1 mphPartly Cloudy
1:51 PM91.9 °F68.0 °F45 %29.98 in10.0 miSW (220°)10.4 mph19.6 mphPartly Cloudy
2:51 PM93.0 °F69.1 °F45 %29.97 in10.0 miSSW (200°)8.1 mphScattered Clouds
3:51 PM91.9 °F66.9 °F44 %29.97 in10.0 miSouth (190°)12.7 mphScattered Clouds
4:51 PM91.9 °F66.9 °F44 %29.95 in10.0 miSSW (210°)9.2 mphScattered Clouds
5:51 PM91.0 °F68.0 °F47 %29.96 in10.0 miWSW (240°)10.4 mphScattered Clouds
6:51 PM90.0 °F68.0 °F48 %29.94 in10.0 miSouth (180°)8.1 mphMostly Cloudy
7:51 PM88.0 °F69.1 °F53 %29.92 in10.0 miSouth (180°)10.4 mphScattered Clouds
8:51 PM87.1 °F68.0 °F53 %29.93 in10.0 miSouth (190°)9.2 mphMostly Cloudy
9:51 PM84.9 °F70.0 °F61 %29.93 in10.0 miSouth (190°)10.4 mphMostly Cloudy
10:51 PM84.0 °F71.1 °F65 %29.91 in10.0 miSouth (180°)13.8 mphMostly Cloudy
11:51 PM82.9 °F69.1 °F63 %29.91 in10.0 miSouth (190°)9.2 mphMostly Cloudy
Hourly data recorded from KSTL, located miles away from Berkeley, Missouri







STORIES FROM OUR PARTNERS